Lapeer, MI

2:30 PM EDT on July 25, 2016 (GMT -0400)
Lapeer

Weather History for KD95 - October, 2013

Change the Weather History Date:

Monday, October 28, 2013

  Actual Average (KFNT) Record (KFNT)
Temperature  
Mean Temperature 36 °F 46 °F  
Max Temperature 46 °F 55 °F 75 °F (1946)
Min Temperature 27 °F 36 °F 22 °F (1997)
Degree Days  
Heating Degree Days 28 19  
Month to date heating degree days 426  
Since 1 July heating degree days 636  
Cooling Degree Days 0 0  
Month to date cooling degree days 2  
Year to date cooling degree days 528  
Moisture  
Dew Point 31 °F    
Average Humidity 80    
Maximum Humidity 99    
Minimum Humidity 62    
Precipitation  
Precipitation 0.00 in 0.07 in 0.96 in (1973)
Month to date precipitation 2.24  
Year to date precipitation 26.55  
Snow  
Snow 0.00 in 0.00 in 0.10 in (1952)
Month to date snowfall 0.3  
Since 1 July snowfall 0.3  
Since 1 September snowfall 0.3  
Snow Depth -    
Sea Level Pressure  
Sea Level Pressure 30.25 in    
Wind  
Wind Speed 4 mph (NE)    
Max Wind Speed 14 mph    
Max Gust Speed 20 mph    
Visibility 10 miles    
Events      
T = Trace of Precipitation, MM = Missing Value Source: NWS Daily Summary

Daily Weather History Graph

Daily Weather History Graph

Search for Another Location

Airport or City:

Trip Planner

Search our weather history database for the weather conditions in past years. The results will help you decide how hot, cold, wet, or windy it might be!

Date:

Astronomy

Oct. 28, 2013 Rise Set
Actual Time 8:02 AM EDT 6:30 PM EDT
Civil Twilight 7:33 AM EDT 6:59 PM EDT
Nautical Twilight 7:00 AM EDT 7:32 PM EDT
Astronomical Twilight 6:27 AM EDT 8:05 PM EDT
Moon 1:45 AM EDT (10/28) 3:19 PM EDT (10/28)
Length of Visible Light 11h 25m
Length of Day
10h 27m
Waning Crescent, 34% of the Moon is Illuminated
Oct 28
Waning Crescent
Nov 3
New
Nov 10
First Quarter
Nov 17
Full
Nov 25
Last Quarter

Hourly Weather History & Observations

Time (EDT) Temp. Windchill Dew Point Humidity Pressure Visibility Wind Dir Wind Speed Gust Speed Precip Events Conditions
12:13 AM 35.2 °F - 30.9 °F 84% 30.03 in 10.0 mi North - - N/A   Scattered Clouds
12:33 AM 33.8 °F 30.8 °F 30.2 °F 87% 30.03 in 10.0 mi SW 3.5 mph - N/A   Mostly Cloudy
12:54 AM 33.4 °F 30.4 °F 30.2 °F 88% 30.03 in 10.0 mi SW 3.5 mph - N/A   Scattered Clouds
1:13 AM 34.2 °F - 30.0 °F 85% 30.03 in 10.0 mi North - - N/A   Clear
1:33 AM 32.0 °F - 29.8 °F 92% 30.03 in 10.0 mi Calm Calm - N/A   Clear
1:53 AM 33.4 °F - 30.7 °F 90% 30.03 in 10.0 mi North - - N/A   Clear
2:13 AM 31.3 °F - 29.7 °F 94% 30.04 in 10.0 mi Calm Calm - N/A   Clear
2:33 AM 30.2 °F - 29.3 °F 96% 30.04 in 10.0 mi North - - N/A   Clear
2:53 AM 31.8 °F - 30.2 °F 94% 30.05 in 10.0 mi North - - N/A   Clear
3:13 AM 31.1 °F - 29.7 °F 94% 30.06 in 10.0 mi Calm Calm - N/A   Clear
3:33 AM 31.6 °F - 29.5 °F 92% 30.06 in 10.0 mi Calm Calm - N/A   Clear
3:53 AM 29.8 °F - 28.8 °F 96% 30.07 in 10.0 mi North - - N/A   Clear
4:13 AM 32.7 °F - 30.4 °F 91% 30.08 in 10.0 mi North - - N/A   Clear
4:34 AM 30.7 °F - 28.8 °F 92% 30.08 in 10.0 mi Calm Calm - N/A   Clear
4:53 AM 29.1 °F - 28.4 °F 97% 30.08 in 10.0 mi Calm Calm - N/A   Clear
5:13 AM 29.5 °F - 28.6 °F 96% 30.10 in 10.0 mi Calm Calm - N/A   Clear
5:34 AM 29.3 °F - 28.8 °F 98% 30.12 in 10.0 mi Calm Calm - N/A   Clear
5:53 AM 28.4 °F - 27.9 °F 98% 30.13 in 10.0 mi Calm Calm - N/A   Scattered Clouds
6:13 AM 29.5 °F - 28.9 °F 98% 30.13 in 10.0 mi Calm Calm - N/A   Scattered Clouds
6:34 AM 28.6 °F - 28.0 °F 98% 30.14 in 10.0 mi Calm Calm - N/A   Scattered Clouds
6:53 AM 27.5 °F - 27.1 °F 99% 30.15 in 10.0 mi Calm Calm - N/A   Mostly Cloudy
7:13 AM 29.8 °F - 29.3 °F 98% 30.15 in 10.0 mi Calm Calm - N/A   Overcast
7:34 AM 30.2 °F - 30.0 °F 99% 30.16 in 10.0 mi Calm Calm - N/A   Overcast
7:54 AM 31.1 °F - 30.6 °F 98% 30.18 in 10.0 mi Calm Calm - N/A   Overcast
8:14 AM 32.0 °F - 31.1 °F 96% 30.19 in 10.0 mi Calm Calm - N/A   Overcast
8:34 AM 32.4 °F - 32.0 °F 99% 30.21 in 10.0 mi Calm Calm - N/A   Overcast
8:54 AM 33.3 °F - 32.2 °F 96% 30.22 in 10.0 mi North - - N/A   Overcast
9:14 AM 37.4 °F 33.8 °F 35.2 °F 92% 30.23 in 10.0 mi NE 4.6 mph - N/A   Overcast
9:34 AM 40.6 °F 36.7 °F 36.1 °F 84% 30.24 in 10.0 mi NNE 5.8 mph - N/A   Overcast
9:54 AM 41.2 °F 35.0 °F 36.0 °F 82% 30.25 in 10.0 mi NNE 10.4 mph - N/A   Overcast
10:14 AM 41.5 °F 37.8 °F 35.6 °F 79% 30.26 in 10.0 mi NE 5.8 mph - N/A   Overcast
10:34 AM 42.1 °F 38.4 °F 35.2 °F 77% 30.26 in 10.0 mi NE 5.8 mph - N/A   Overcast
10:54 AM 42.8 °F 39.3 °F 35.6 °F 76% 30.27 in 10.0 mi NE 5.8 mph - N/A   Overcast
11:14 AM 43.7 °F 38.6 °F 34.9 °F 71% 30.28 in 10.0 mi NNE 9.2 mph - N/A   Overcast
11:34 AM 46.2 °F 40.1 °F 34.9 °F 65% 30.29 in 10.0 mi NE 13.8 mph 17.3 mph N/A   Scattered Clouds
11:54 AM 46.9 °F - 34.7 °F 62% 30.29 in 10.0 mi NE 9.2 mph 16.1 mph N/A   Mostly Cloudy
12:14 PM 46.0 °F 41.0 °F 34.9 °F 65% 30.31 in 10.0 mi NE 10.4 mph - N/A   Overcast
12:34 PM 44.4 °F 39.0 °F 34.7 °F 69% 30.32 in 10.0 mi NE 10.4 mph 19.6 mph N/A   Overcast
12:54 PM 44.2 °F 38.8 °F 34.0 °F 67% 30.32 in 10.0 mi ENE 10.4 mph - N/A   Overcast
1:14 PM 44.6 °F 40.2 °F 34.0 °F 66% 30.32 in 10.0 mi NE 8.1 mph - N/A   Overcast
1:34 PM 43.9 °F 38.3 °F 35.2 °F 72% 30.32 in 10.0 mi ENE 10.4 mph 16.1 mph N/A   Overcast
1:54 PM 42.4 °F 37.5 °F 34.7 °F 74% 30.33 in 10.0 mi NE 8.1 mph - N/A   Overcast
2:14 PM 42.3 °F 36.8 °F 34.3 °F 74% 30.33 in 10.0 mi NE 9.2 mph - N/A   Overcast
2:34 PM 42.3 °F 38.6 °F 33.8 °F 72% 30.33 in 10.0 mi ENE 5.8 mph - N/A   Overcast
2:54 PM 42.3 °F 37.3 °F 33.4 °F 71% 30.33 in 10.0 mi NE 8.1 mph - N/A   Overcast
3:14 PM 42.1 °F 37.7 °F 32.7 °F 69% 30.34 in 10.0 mi ENE 6.9 mph - N/A   Overcast
3:34 PM 42.1 °F 39.2 °F 32.7 °F 69% 30.34 in 10.0 mi ENE 4.6 mph - N/A   Overcast
3:54 PM 41.9 °F 38.2 °F 32.0 °F 68% 30.34 in 10.0 mi ENE 5.8 mph - N/A   Overcast
4:14 PM 41.5 °F 36.4 °F 32.0 °F 69% 30.34 in 10.0 mi NE 8.1 mph - N/A   Overcast
4:34 PM 41.4 °F 36.2 °F 31.6 °F 68% 30.34 in 10.0 mi NE 8.1 mph - N/A   Overcast
4:54 PM 41.2 °F 36.6 °F 31.5 °F 68% 30.35 in 10.0 mi ENE 6.9 mph - N/A   Overcast
5:13 PM 41.2 °F 36.6 °F 31.1 °F 67% 30.35 in 10.0 mi NE 6.9 mph - N/A   Overcast
5:34 PM 41.0 °F 37.1 °F 30.9 °F 67% 30.35 in 10.0 mi NE 5.8 mph - N/A   Overcast
5:54 PM 41.0 °F 39.0 °F 30.7 °F 67% 30.34 in 10.0 mi ENE 3.5 mph - N/A   Overcast
6:14 PM 41.0 °F 37.1 °F 30.4 °F 66% 30.34 in 10.0 mi NE 5.8 mph - N/A   Overcast
6:34 PM 40.8 °F 37.8 °F 30.2 °F 66% 30.35 in 10.0 mi NE 4.6 mph - N/A   Overcast
6:54 PM 40.3 °F 36.3 °F 30.7 °F 69% 30.35 in 10.0 mi ENE 5.8 mph - N/A   Overcast
7:14 PM 40.1 °F 36.1 °F 31.1 °F 70% 30.36 in 10.0 mi NE 5.8 mph - N/A   Overcast
7:34 PM 39.7 °F 35.6 °F 31.1 °F 71% 30.37 in 10.0 mi NE 5.8 mph - N/A   Overcast
7:54 PM 39.6 °F 37.4 °F 31.1 °F 72% 30.37 in 10.0 mi NE 3.5 mph - N/A   Overcast
8:14 PM 39.2 °F 34.2 °F 30.2 °F 70% 30.38 in 10.0 mi NE 6.9 mph - N/A   Overcast
8:34 PM 39.2 °F 34.2 °F 30.2 °F 70% 30.38 in 10.0 mi NE 6.9 mph - N/A   Overcast
8:53 PM 38.5 °F 33.4 °F 30.0 °F 72% 30.38 in 10.0 mi NE 6.9 mph - N/A   Overcast
9:14 PM 38.5 °F 34.1 °F 29.8 °F 71% 30.38 in 10.0 mi NE 5.8 mph - N/A   Overcast
9:34 PM 38.3 °F 33.2 °F 29.5 °F 71% 30.39 in 10.0 mi NE 6.9 mph - N/A   Overcast
9:53 PM 38.3 °F 33.2 °F 29.3 °F 70% 30.39 in 10.0 mi NE 6.9 mph - N/A   Overcast
10:14 PM 38.3 °F 34.8 °F 29.5 °F 71% 30.40 in 10.0 mi NNE 4.6 mph - N/A   Overcast
10:34 PM 38.1 °F 34.6 °F 29.5 °F 71% 30.41 in 10.0 mi NNE 4.6 mph - N/A   Overcast
10:53 PM 37.9 °F 33.5 °F 29.5 °F 72% 30.40 in 10.0 mi NE 5.8 mph - N/A   Overcast
11:14 PM 37.9 °F 33.5 °F 29.5 °F 72% 30.41 in 10.0 mi NE 5.8 mph - N/A   Overcast
11:34 PM 37.8 °F 34.2 °F 29.3 °F 72% 30.41 in 10.0 mi NNE 4.6 mph - N/A   Overcast
11:53 PM 37.8 °F - 29.7 °F 73% 30.41 in 10.0 mi Calm Calm - N/A   Overcast